International Skating Union - Official Site

Essent ISU World Cup Berlin
December 6-8, 2013

Draw | Lap Times | Index | World Cup

Referee: Jacques  DE KONING  (NED)
Starter: Åke  FALK  (SWE)
StartTime: EndTime: Air Temp: Ice Temp: Humidity:
11:15 12:43 16.6℃ -4℃ 32
Result 5000m Men Division B
Rankings as of Dec 8 2013 5:18PM
Rank: No.: Name: Nation: Time: Behind: Points:
1 62 Dmitry  Babenko KAZ KAZ 6:21.15200m - 18.62 - (18.6)
600m - 48.02 - (29.4)
1000m - 1:18.10 - (30.0)
1400m - 1:47.98 - (29.8)
1800m - 2:17.95 - (29.9)
2200m - 2:47.75 - (29.8)
2600m - 3:17.71 - (29.9)
3000m - 3:47.87 - (30.1)
3400m - 4:18.30 - (30.4)
3800m - 4:48.76 - (30.4)
4200m - 5:19.86 - (31.1)
4600m - 5:50.75 - (30.8)
5000m - 6:21.15 - (30.4)
32
2 123 Aleksandr  Rumyantsev RUS RUS 6:21.75200m - 19.55 - (19.5)
600m - 49.60 - (30.0)
1000m - 1:19.33 - (29.7)
1400m - 1:49.14 - (29.8)
1800m - 2:19.10 - (29.9)
2200m - 2:49.13 - (30.0)
2600m - 3:19.15 - (30.0)
3000m - 3:49.02 - (29.8)
3400m - 4:18.73 - (29.7)
3800m - 4:48.68 - (29.9)
4200m - 5:19.08 - (30.3)
4600m - 5:50.37 - (31.2)
5000m - 6:21.75 - (31.3)
0.60 27
3 87 Rob  Hadders NED NED 6:23.38200m - 19.89 - (19.8)
600m - 50.07 - (30.1)
1000m - 1:20.03 - (29.9)
1400m - 1:49.97 - (29.9)
1800m - 2:19.86 - (29.8)
2200m - 2:49.96 - (30.0)
2600m - 3:20.21 - (30.2)
3000m - 3:50.56 - (30.3)
3400m - 4:20.96 - (30.3)
3800m - 4:51.65 - (30.6)
4200m - 5:22.21 - (30.5)
4600m - 5:52.82 - (30.6)
5000m - 6:23.38 - (30.5)
2.23 23
4 113 Jan  Szymanski POL POL 6:26.36200m - 18.22 - (18.2)
600m - 47.42 - (29.2)
1000m - 1:17.66 - (30.2)
1400m - 1:47.82 - (30.1)
1800m - 2:17.88 - (30.0)
2200m - 2:48.11 - (30.2)
2600m - 3:18.64 - (30.5)
3000m - 3:49.45 - (30.8)
3400m - 4:20.14 - (30.6)
3800m - 4:50.94 - (30.8)
4200m - 5:22.69 - (31.7)
4600m - 5:54.83 - (32.1)
5000m - 6:26.36 - (31.5)
5.21 19
5 124 Yevgeny  Seryaev RUS RUS 6:26.69200m - 19.79 - (19.7)
600m - 50.27 - (30.4)
1000m - 1:20.30 - (30.0)
1400m - 1:50.90 - (30.6)
1800m - 2:20.97 - (30.0)
2200m - 2:51.18 - (30.2)
2600m - 3:21.46 - (30.2)
3000m - 3:52.16 - (30.6)
3400m - 4:22.79 - (30.6)
3800m - 4:53.81 - (31.0)
4200m - 5:24.43 - (30.6)
4600m - 5:55.32 - (30.8)
5000m - 6:26.69 - (31.3)
5.54 15
6 43 Marco  Weber GER GER 6:27.23200m - 19.80 - (19.8)
600m - 50.06 - (30.2)
1000m - 1:20.14 - (30.0)
1400m - 1:50.23 - (30.0)
1800m - 2:20.27 - (30.0)
2200m - 2:50.29 - (30.0)
2600m - 3:20.46 - (30.1)
3000m - 3:51.12 - (30.6)
3400m - 4:22.02 - (30.8)
3800m - 4:53.07 - (31.0)
4200m - 5:24.54 - (31.4)
4600m - 5:55.96 - (31.4)
5000m - 6:27.23 - (31.2)
6.08 11
7 38 Robert  Lehmann GER GER 6:29.53200m - 19.25 - (19.2)
600m - 49.23 - (29.9)
1000m - 1:19.85 - (30.6)
1400m - 1:50.69 - (30.8)
1800m - 2:21.61 - (30.9)
2200m - 2:52.33 - (30.7)
2600m - 3:22.79 - (30.4)
3000m - 3:53.66 - (30.8)
3400m - 4:25.02 - (31.3)
3800m - 4:56.40 - (31.3)
4200m - 5:27.57 - (31.1)
4600m - 5:58.43 - (30.8)
5000m - 6:29.53 - (31.0)
8.38 9
8 139 Patrick  Meek USA USA 6:29.55200m - 19.58 - (19.5)
600m - 49.70 - (30.1)
1000m - 1:19.84 - (30.1)
1400m - 1:49.92 - (30.0)
1800m - 2:20.09 - (30.1)
2200m - 2:50.35 - (30.2)
2600m - 3:20.85 - (30.5)
3000m - 3:51.50 - (30.6)
3400m - 4:22.47 - (30.9)
3800m - 4:53.67 - (31.1)
4200m - 5:25.09 - (31.4)
4600m - 5:57.06 - (31.9)
5000m - 6:29.55 - (32.4)
8.40 7
9 29 Ewen  Fernandez FRA FRA 6:30.21200m - 18.94 - (18.9)
600m - 48.57 - (29.6)
1000m - 1:19.48 - (30.9)
1400m - 1:50.45 - (30.9)
1800m - 2:21.84 - (31.3)
2200m - 2:52.83 - (30.9)
2600m - 3:24.13 - (31.2)
3000m - 3:55.35 - (31.2)
3400m - 4:26.35 - (31.0)
3800m - 4:57.08 - (30.7)
4200m - 5:28.03 - (30.9)
4600m - 5:59.22 - (31.1)
5000m - 6:30.21 - (30.9)
9.06 6
10 11 Jordan  Belchos CAN CAN 6:30.91200m - 19.34 - (19.3)
600m - 49.10 - (29.7)
1000m - 1:18.99 - (29.8)
1400m - 1:49.12 - (30.1)
1800m - 2:19.60 - (30.4)
2200m - 2:50.28 - (30.6)
2600m - 3:21.20 - (30.9)
3000m - 3:52.49 - (31.2)
3400m - 4:23.89 - (31.3)
3800m - 4:55.42 - (31.5)
4200m - 5:27.10 - (31.6)
4600m - 5:59.04 - (31.9)
5000m - 6:30.91 - (31.8)
9.76 5
11 102 Fredrik  van der Horst NOR NOR 6:31.89200m - 19.24 - (19.2)
600m - 49.42 - (30.1)
1000m - 1:19.97 - (30.5)
1400m - 1:50.95 - (30.9)
1800m - 2:21.66 - (30.7)
2200m - 2:52.68 - (31.0)
2600m - 3:23.60 - (30.9)
3000m - 3:54.50 - (30.9)
3400m - 4:25.16 - (30.6)
3800m - 4:56.16 - (31.0)
4200m - 5:27.80 - (31.6)
4600m - 5:59.75 - (31.9)
5000m - 6:31.89 - (32.1)
10.74 4
12 49 Andrea  Giovannini ITA ITA 6:34.38200m - 18.97 - (18.9)
600m - 49.63 - (30.6)
1000m - 1:20.60 - (30.9)
1400m - 1:51.78 - (31.1)
1800m - 2:22.41 - (30.6)
2200m - 2:53.14 - (30.7)
2600m - 3:24.05 - (30.9)
3000m - 3:55.19 - (31.1)
3400m - 4:26.68 - (31.4)
3800m - 4:58.18 - (31.5)
4200m - 5:30.11 - (31.9)
4600m - 6:02.28 - (32.1)
5000m - 6:34.38 - (32.0)
13.23 3
13 60 Shane  Williamson JPN JPN 6:35.88200m - 19.51 - (19.5)
600m - 50.43 - (30.9)
1000m - 1:21.40 - (30.9)
1400m - 1:52.38 - (30.9)
1800m - 2:23.64 - (31.2)
2200m - 2:55.18 - (31.5)
2600m - 3:26.61 - (31.4)
3000m - 3:57.65 - (31.0)
3400m - 4:28.65 - (30.9)
3800m - 5:00.01 - (31.3)
4200m - 5:31.69 - (31.6)
4600m - 6:03.78 - (32.0)
5000m - 6:35.88 - (32.0)
14.73 2
14 70 Hyong-Jun  Joo KOR KOR 6:36.49200m - 19.92 - (19.9)
600m - 51.47 - (31.5)
1000m - 1:22.84 - (31.3)
1400m - 1:54.87 - (32.0)
1800m - 2:26.49 - (31.6)
2200m - 2:58.63 - (32.1)
2600m - 3:30.47 - (31.8)
3000m - 4:02.44 - (31.9)
3400m - 4:33.87 - (31.4)
3800m - 5:04.95 - (31.0)
4200m - 5:35.26 - (30.3)
4600m - 6:05.84 - (30.5)
5000m - 6:36.49 - (30.6)
15.34 1
15 75 Jin-Yeong  Lee KOR KOR 6:36.51200m - 19.82 - (19.8)
600m - 50.57 - (30.7)
1000m - 1:21.42 - (30.8)
1400m - 1:52.29 - (30.8)
1800m - 2:23.06 - (30.7)
2200m - 2:54.15 - (31.0)
2600m - 3:25.32 - (31.1)
3000m - 3:56.75 - (31.4)
3400m - 4:28.11 - (31.3)
3800m - 5:00.00 - (31.8)
4200m - 5:32.01 - (32.0)
4600m - 6:04.44 - (32.4)
5000m - 6:36.51 - (32.0)
15.36 0
16 4 Bram  Smallenbroek AUT AUT 6:37.20200m - 18.94 - (18.9)
600m - 48.67 - (29.7)
1000m - 1:18.79 - (30.1)
1400m - 1:49.15 - (30.3)
1800m - 2:19.89 - (30.7)
2200m - 2:50.72 - (30.8)
2600m - 3:21.75 - (31.0)
3000m - 3:52.86 - (31.1)
3400m - 4:24.40 - (31.5)
3800m - 4:56.47 - (32.0)
4200m - 5:29.01 - (32.5)
4600m - 6:02.83 - (33.8)
5000m - 6:37.20 - (34.3)
16.05 0
17 19 Longjiang  Sun CHN CHN 6:37.30200m - 19.97 - (19.9)
600m - 51.33 - (31.3)
1000m - 1:23.11 - (31.7)
1400m - 1:54.49 - (31.3)
1800m - 2:25.89 - (31.3)
2200m - 2:57.70 - (31.8)
2600m - 3:29.14 - (31.4)
3000m - 4:00.74 - (31.6)
3400m - 4:32.19 - (31.4)
3800m - 5:03.79 - (31.6)
4200m - 5:35.38 - (31.5)
4600m - 6:06.48 - (31.1)
5000m - 6:37.30 - (30.8)
16.15 0
18 13 Mathieu  Giroux CAN CAN 6:38.40200m - 19.79 - (19.7)
600m - 51.35 - (31.5)
1000m - 1:22.52 - (31.1)
1400m - 1:53.75 - (31.2)
1800m - 2:24.90 - (31.1)
2200m - 2:56.37 - (31.4)
2600m - 3:27.79 - (31.4)
3000m - 3:59.29 - (31.5)
3400m - 4:30.79 - (31.5)
3800m - 5:02.35 - (31.5)
4200m - 5:34.09 - (31.7)
4600m - 6:06.09 - (32.0)
5000m - 6:38.40 - (32.3)
17.25 0
19 51 Luca  Stefani ITA ITA 6:38.78200m - 19.20 - (19.1)
600m - 49.08 - (29.8)
1000m - 1:18.86 - (29.7)
1400m - 1:49.06 - (30.2)
1800m - 2:19.95 - (30.8)
2200m - 2:51.28 - (31.3)
2600m - 3:23.42 - (32.1)
3000m - 3:55.54 - (32.1)
3400m - 4:28.11 - (32.5)
3800m - 5:00.88 - (32.7)
4200m - 5:33.55 - (32.6)
4600m - 6:06.19 - (32.6)
5000m - 6:38.78 - (32.5)
17.63 0
20 14 Lucas  Makowsky CAN CAN 6:39.53200m - 19.64 - (19.6)
600m - 50.60 - (30.9)
1000m - 1:21.76 - (31.1)
1400m - 1:52.79 - (31.0)
1800m - 2:23.89 - (31.0)
2200m - 2:55.19 - (31.3)
2600m - 3:26.77 - (31.5)
3000m - 3:58.51 - (31.7)
3400m - 4:30.44 - (31.9)
3800m - 5:02.61 - (32.1)
4200m - 5:34.97 - (32.3)
4600m - 6:07.11 - (32.1)
5000m - 6:39.53 - (32.4)
18.38 0
21 109 Roland  Cieslak POL POL 6:39.69200m - 19.70 - (19.6)
600m - 49.68 - (29.9)
1000m - 1:20.18 - (30.5)
1400m - 1:51.23 - (31.0)
1800m - 2:22.63 - (31.3)
2200m - 2:54.14 - (31.5)
2600m - 3:26.12 - (31.9)
3000m - 3:58.54 - (32.4)
3400m - 4:31.34 - (32.7)
3800m - 5:04.25 - (32.9)
4200m - 5:37.14 - (32.8)
4600m - 6:09.01 - (31.8)
5000m - 6:39.69 - (30.6)
18.54 0
22 110 Sebastian  Druszkiewicz POL POL 6:40.28200m - 20.03 - (20.0)
600m - 51.32 - (31.2)
1000m - 1:22.82 - (31.4)
1400m - 1:54.03 - (31.2)
1800m - 2:25.28 - (31.2)
2200m - 2:56.63 - (31.3)
2600m - 3:28.27 - (31.6)
3000m - 3:59.85 - (31.5)
3400m - 4:31.54 - (31.6)
3800m - 5:03.34 - (31.7)
4200m - 5:35.28 - (31.9)
4600m - 6:07.77 - (32.4)
5000m - 6:40.28 - (32.5)
19.13 0
23 10 Vitaly  Mikhailov BLR BLR 6:41.40200m - 19.95 - (19.9)
600m - 49.97 - (30.0)
1000m - 1:20.96 - (30.9)
1400m - 1:51.78 - (30.8)
1800m - 2:22.94 - (31.1)
2200m - 2:54.18 - (31.2)
2600m - 3:26.05 - (31.8)
3000m - 3:58.15 - (32.0)
3400m - 4:30.47 - (32.3)
3800m - 5:03.14 - (32.6)
4200m - 5:35.72 - (32.5)
4600m - 6:08.30 - (32.5)
5000m - 6:41.40 - (33.0)
20.25 0
24 74 Byung-Wook  Ko KOR KOR 6:42.92200m - 20.22 - (20.2)
600m - 51.17 - (30.9)
1000m - 1:22.42 - (31.2)
1400m - 1:53.73 - (31.3)
1800m - 2:24.97 - (31.2)
2200m - 2:56.45 - (31.4)
2600m - 3:28.10 - (31.6)
3000m - 3:59.79 - (31.6)
3400m - 4:31.47 - (31.6)
3800m - 5:03.57 - (32.0)
4200m - 5:36.00 - (32.4)
4600m - 6:09.15 - (33.1)
5000m - 6:42.92 - (33.7)
21.77 0
25 3 Linus  Heidegger AUT AUT 6:43.14200m - 19.55 - (19.5)
600m - 50.76 - (31.2)
1000m - 1:22.71 - (31.9)
1400m - 1:54.95 - (32.2)
1800m - 2:26.70 - (31.7)
2200m - 2:58.46 - (31.7)
2600m - 3:30.30 - (31.8)
3000m - 4:02.14 - (31.8)
3400m - 4:34.16 - (32.0)
3800m - 5:06.13 - (31.9)
4200m - 5:38.38 - (32.2)
4600m - 6:10.83 - (32.4)
5000m - 6:43.14 - (32.3)
21.99 0
26 99 Simen Spieler  Nilsen NOR NOR 6:43.30200m - 19.07 - (19.0)
600m - 49.25 - (30.1)
1000m - 1:20.20 - (30.9)
1400m - 1:51.07 - (30.8)
1800m - 2:22.11 - (31.0)
2200m - 2:52.83 - (30.7)
2600m - 3:24.17 - (31.3)
3000m - 3:55.83 - (31.6)
3400m - 4:27.96 - (32.1)
3800m - 5:01.10 - (33.1)
4200m - 5:34.90 - (33.7)
4600m - 6:09.05 - (34.1)
5000m - 6:43.30 - (34.2)
22.15 0
27 106 Reyon  Kay NZL NZL 6:45.57200m - 20.04 - (20.0)
600m - 51.33 - (31.2)
1000m - 1:23.30 - (31.9)
1400m - 1:55.26 - (31.9)
1800m - 2:27.11 - (31.8)
2200m - 2:58.92 - (31.8)
2600m - 3:30.97 - (32.0)
3000m - 4:03.04 - (32.0)
3400m - 4:35.30 - (32.2)
3800m - 5:07.45 - (32.1)
4200m - 5:39.85 - (32.4)
4600m - 6:12.86 - (33.0)
5000m - 6:45.57 - (32.7)
24.42 0
28 128 Martin  Hänggi SUI SUI 6:45.63200m - 19.76 - (19.7)
600m - 50.50 - (30.7)
1000m - 1:22.03 - (31.5)
1400m - 1:53.79 - (31.7)
1800m - 2:25.64 - (31.8)
2200m - 2:57.83 - (32.1)
2600m - 3:29.87 - (32.0)
3000m - 4:02.21 - (32.3)
3400m - 4:34.51 - (32.2)
3800m - 5:07.45 - (32.9)
4200m - 5:40.41 - (32.9)
4600m - 6:13.29 - (32.8)
5000m - 6:45.63 - (32.3)
24.48 0
29 129 Roger  Schneider SUI SUI 6:46.33200m - 19.70 - (19.6)
600m - 49.74 - (30.0)
1000m - 1:20.25 - (30.5)
1400m - 1:51.98 - (31.7)
1800m - 2:23.82 - (31.8)
2200m - 2:55.93 - (32.1)
2600m - 3:28.24 - (32.3)
3000m - 4:00.40 - (32.1)
3400m - 4:32.56 - (32.1)
3800m - 5:05.30 - (32.7)
4200m - 5:38.50 - (33.1)
4600m - 6:12.39 - (33.8)
5000m - 6:46.33 - (33.9)
25.18 0
30 7 Maarten  Swings BEL BEL 6:48.48200m - 20.01 - (20.0)
600m - 51.78 - (31.7)
1000m - 1:23.60 - (31.8)
1400m - 1:55.92 - (32.3)
1800m - 2:28.25 - (32.3)
2200m - 3:00.21 - (31.9)
2600m - 3:32.46 - (32.2)
3000m - 4:04.51 - (32.0)
3400m - 4:36.48 - (31.9)
3800m - 5:08.59 - (32.1)
4200m - 5:41.34 - (32.7)
4600m - 6:14.69 - (33.3)
5000m - 6:48.48 - (33.7)
27.33 0
31 22 Stefan  Due Schmidt DEN DEN 6:49.70200m - 19.69 - (19.6)
600m - 51.20 - (31.5)
1000m - 1:23.05 - (31.8)
1400m - 1:54.80 - (31.7)
1800m - 2:26.53 - (31.7)
2200m - 2:58.54 - (32.0)
2600m - 3:30.83 - (32.2)
3000m - 4:03.42 - (32.5)
3400m - 4:36.20 - (32.7)
3800m - 5:09.37 - (33.1)
4200m - 5:42.87 - (33.5)
4600m - 6:16.25 - (33.3)
5000m - 6:49.70 - (33.4)
28.55 0
32 63 Maxim  Baklashkin KAZ KAZ 6:49.95200m - 19.40 - (19.3)
600m - 50.35 - (30.9)
1000m - 1:21.94 - (31.5)
1400m - 1:53.78 - (31.8)
1800m - 2:25.75 - (31.9)
2200m - 2:57.65 - (31.9)
2600m - 3:29.98 - (32.3)
3000m - 4:03.03 - (33.0)
3400m - 4:36.03 - (32.9)
3800m - 5:09.70 - (33.6)
4200m - 5:43.27 - (33.5)
4600m - 6:16.73 - (33.4)
5000m - 6:49.95 - (33.2)
28.80 0
33 21 Zdenek  Haselberger CZE CZE 6:51.37200m - 20.00 - (20.0)
600m - 51.88 - (31.8)
1000m - 1:23.95 - (32.0)
1400m - 1:56.15 - (32.2)
1800m - 2:28.43 - (32.2)
2200m - 3:00.83 - (32.4)
2600m - 3:33.58 - (32.7)
3000m - 4:06.63 - (33.0)
3400m - 4:39.61 - (32.9)
3800m - 5:12.51 - (32.8)
4200m - 5:45.53 - (33.0)
4600m - 6:18.66 - (33.1)
5000m - 6:51.37 - (32.7)
30.22 0
34 17 Yan  Liu CHN CHN 6:52.98200m - 20.30 - (20.3)
600m - 52.37 - (32.0)
1000m - 1:25.21 - (32.8)
1400m - 1:58.40 - (33.1)
1800m - 2:31.38 - (32.9)
2200m - 3:03.59 - (32.2)
2600m - 3:36.31 - (32.7)
3000m - 4:09.12 - (32.8)
3400m - 4:42.05 - (32.9)
3800m - 5:14.66 - (32.6)
4200m - 5:47.80 - (33.1)
4600m - 6:21.10 - (33.3)
5000m - 6:52.98 - (31.8)
31.83 0
35 8 Wannes  van Preat BEL BEL 7:02.34200m - 19.67 - (19.6)
600m - 51.61 - (31.9)
1000m - 1:24.11 - (32.5)
1400m - 1:56.72 - (32.6)
1800m - 2:29.19 - (32.4)
2200m - 3:01.70 - (32.5)
2600m - 3:34.73 - (33.0)
3000m - 4:07.94 - (33.2)
3400m - 4:41.61 - (33.6)
3800m - 5:15.92 - (34.3)
4200m - 5:50.94 - (35.0)
4600m - 6:26.45 - (35.5)
5000m - 7:02.34 - (35.8)
41.19 0
36 130 David  Andersson SWE SWE DQ200m - 19.70 - (19.6)
600m - 50.97 - (31.2)
1000m - 1:22.98 - (32.0)
1400m - 1:55.92 - (32.9)
1800m - 2:28.83 - (32.9)
2200m - 3:01.25 - (32.4)
2600m - 3:33.82 - (32.5)
3000m - 4:06.11 - (32.2)
3400m - 4:38.42 - (32.3)
3800m - 5:10.96 - (32.5)
4200m - 5:43.35 - (32.3)
4600m - 6:15.72 - (32.3)
5000m - 6:48.32 - (32.5)
0